sat.trackr.live / text

‹ back to catalog

STARLINK-3509

NORAD 51737 · 2022-016Z

PAYLOAD ACTIVE UNKNOWN

§ Identity

Operator
Country
US
Launch date
2022-02-21
Launch site
AFETR
Launch vehicle
Mass (kg)
RCS (m²)

Purposes: comms

External: N2YO · Heavens-Above · Gunter

§ Orbital elements

Epoch: 2026-05-24T21:33:18.317088Z

Period
95.44 min
Inclination
53.2122°
Eccentricity
0.0001268
Mean motion
15.08837042 rev/d
Perigee alt
538.9 km
Apogee alt
540.6 km
Semi-major
6,917.9 km
B*
5.1791e-5
RAAN
337.0079°
Arg perigee
92.4791°
Mean anomaly
267.6346°
Rev number
23,506

§ Raw data

STARLINK-35091 51737U 22016Z   26144.89812867  .00000536  00000+0  51791-4 0  99902 51737  53.2122 337.0079 0001268  92.4791 267.6346 15.08837042235066

JSON: /api/v1/satellites/51737 · /tle

For live sub-satellite position, see the globe view (requires WebGL).

§ Visibility from observer

Set your observer location to see the next 7 days of passes ≥ 10°. The values pass through the URL so the page stays shareable.

No JS? Fill the form by hand. The geolocation button needs JavaScript.